Location: Doverdale
(52.2833°N, 2.2000°W)
Time: 03:36:07
(UTC+00:00)

Cosmos 1331 Rocket - Pass Details

Date: 29 October 2020
Orbit: 749 x 778 km, 74.0° (Epoch: 27 November)

Event Time Altitude Azimuth Distance (km) Brightness Sun altitude
Rises 18:05:06 0° 215° (SW) 3,191 7.9 -12.8°
Reaches altitude 10° 18:07:29 10° 219° (SW) 2,269 7.1 -13.1°
Maximum altitude 18:12:34 61° 299° (WNW) 856 4.5 -13.9°
Drops below altitude 10° 18:17:42 10° 20° (NNE) 2,285 6.2 -14.7°
Sets 18:20:06 0° 24° (NNE) 3,215 7.0 -15.1°
